Wind_Speed
25 25 20 16 16 15 18 18 13 8 5 2 7 16 18 18 20 25 33 38 26 29 26 32 38 39 39 41 42 41 30 30 30 31 30 26 24 20 19 21 19 15 14 13 15
25 25 20 17 17 13 15 16 14 8 6 7 10 14 16 15 18 22 24 34 26 28 28 30 39 40 42 43 43 42 36 33 28 22 24 22 21 19 20 20 18 13 14 13 15
24 25 24 21 20 16 13 11 13 11 5 7 11 15 15 16 14 14 20 34 27 32 28 32 36 40 43 45 44 41 35 28 26 22 19 21 21 19 17 14 11 10 13 11 15
22 22 22 25 26 22 17 13 9 9 8 6 8 12 13 14 11 13 16 30 18 25 31 32 37 42 44 46 44 36 30 28 19 19 20 21 20 20 16 11 10 9 13 12 14
21 22 21 22 24 26 25 25 25 23 6 2 6 8 13 13 13 2 15 20 20 28 26 30 36 40 42 44 43 33 30 26 18 18 22 21 21 17 14 9 11 11 15 13 15
19 20 19 20 19 18 20 21 21 21 19 19 10 6 5 2 7 7 11 25 11 25 24 28 31 30 36 39 38 29 29 23 20 22 23 21 20 18 15 11 13 12 16 16 14
18 17 18 19 18 17 17 17 17 16 17 19 18 21 19 11 9 10 9 6 8 20 19 23 29 21 31 36 31 22 25 20 22 26 26 22 20 19 13 12 15 14 16 16 15
18 16 17 18 18 17 16 15 14 18 19 17 18 19 22 23 15 11 18 15 19 20 23 25 24 19 29 30 27 23 23 24 25 26 26 25 23 19 16 13 17 15 15 15 14
17 16 17 16 14 15 11 13 14 14 16 17 19 17 15 15 19 14 15 13 17 27 33 27 17 23 28 28 28 28 24 26 25 26 24 23 15 19 17 17 20 18 17 16 14
16 16 16 18 14 13 16 10 9 8 7 11 11 16 15 14 9 13 15 15 29 33 24 24 17 22 26 30 26 27 25 24 22 25 23 23 15 15 17 18 19 20 17 15 15
13 14 13 15 18 18 14 17 20 21 21 20 17 18 18 15 10 11 17 26 33 25 20 20 20 23 27 29 17 21 23 25 21 24 22 20 17 9 18 18 18 17 16 16 16
14 10 10 14 19 22 17 18 20 19 21 18 15 16 15 15 14 15 22 29 21 15 20 20 19 21 23 23 15 15 20 22 20 20 21 18 17 13 14 17 17 17 17 17 18
16 9 3 7 10 10 9 12 18 18 17 16 12 9 13 18 19 19 20 16 17 18 16 15 16 18 19 17 17 19 19 23 19 17 16 11 12 16 15 14 15 16 17 18 19
18 13 5 2 1 4 7 6 7 7 6 9 9 9 8 12 14 20 15 16 16 16 16 11 15 13 14 12 14 17 18 19 14 15 6 9 6 15 17 16 17 17 18 19 19
19 15 10 3 6 6 4 4 4 4 4 6 10 8 8 4 14 11 11 11 13 15 7 12 20 18 14 12 11 13 16 14 14 13 8 7 3 7 15 18 19 18 17 17 16
20 17 12 8 3 3 4 2 3 2 3 4 8 9 10 13 10 10 8 10 15 13 8 19 20 16 14 14 13 15 16 13 10 8 2 8 8 7 11 14 14 13 13 13 14
19 18 15 11 7 3 1 1 2 5 5 6 10 10 10 11 10 8 10 13 8 12 21 18 18 15 13 13 13 17 18 5 2 0 4 5 8 5 9 10 11 11 11 13 13
18 18 16 13 8 5 4 3 4 5 7 10 11 10 12 13 11 11 7 5 5 13 17 6 9 17 14 13 10 16 12 3 6 3 3 6 6 5 11 11 11 10 10 11 11
15 17 17 14 11 9 6 5 6 9 12 11 10 9 9 5 8 6 6 7 11 14 2 5 7 12 15 12 13 12 8 5 5 3 1 3 4 7 9 11 12 12 12 12 11
14 14 16 14 13 10 7 10 9 13 12 6 3 4 4 8 5 4 3 7 13 5 5 6 7 10 13 12 10 9 11 4 5 3 2 3 6 8 8 8 12 14 13 11 13
15 10 12 11 11 8 9 14 15 12 5 2 2 4 5 4 5 3 2 6 7 5 4 7 4 11 11 9 9 8 9 5 4 3 4 1 3 6 7 8 9 10 12 16 18
14 12 10 8 8 8 10 9 9 6 2 1 2 3 5 3 3 2 3 2 5 4 3 2 3 6 10 9 12 13 12 11 5 5 5 3 6 9 8 9 12 16 17 16 18
13 11 11 8 6 7 9 8 5 3 3 2 1 4 4 4 2 4 3 3 3 5 3 4 3 4 2 8 13 14 16 16 15 11 10 4 4 5 6 9 12 14 14 20 29
11 10 8 9 6 6 6 5 5 4 2 1 1 1 2 4 5 2 5 4 5 7 7 6 7 7 3 1 3 7 9 15 19 11 12 21 15 9 7 10 13 18 27 31 29
9 6 8 8 6 5 4 3 2 2 1 1 2 2 3 2 5 6 5 6 6 6 7 7 8 9 11 14 15 17 17 17 20 22 21 27 25 20 22 24 23 29 27 17 13
7 6 5 5 6 6 6 4 3 2 2 1 3 3 4 5 5 4 4 6 7 7 9 10 8 9 11 13 17 22 22 24 26 28 32 32 33 27 24 26 21 18 14 12 12
7 7 6 5 4 3 4 5 5 5 4 4 4 6 6 7 8 9 8 9 10 9 9 11 9 7 5 8 12 19 18 23 30 33 31 34 33 27 24 23 20 16 14 13 13
Wind_Direction
356 347 345 349 356 7 4 2 4 20 24 106 167 174 186 196 207 215 213 211 214 197 201 201 189 191 192 194 195 197 195 206 214 212 216 217 218 215 207 204 204 208 220 223 221
18 16 23 20 30 22 19 14 15 38 54 111 146 163 179 188 206 221 224 216 210 200 199 199 189 187 189 192 194 195 200 209 214 217 218 217 213 213 201 201 207 220 226 223 212
26 30 33 37 39 27 24 21 34 42 67 114 134 158 171 186 198 212 231 226 201 203 199 193 192 185 189 192 193 195 205 205 211 215 215 215 208 199 199 200 206 232 217 206 202
24 28 29 36 30 28 24 19 18 352 38 104 139 157 165 173 182 220 228 219 173 200 196 196 187 183 187 191 192 192 201 202 203 208 206 206 201 195 192 199 218 216 193 195 193
25 28 29 34 44 46 47 54 52 46 19 110 146 158 176 184 190 189 214 219 220 191 188 196 186 181 185 190 190 193 196 198 197 199 199 197 197 196 198 204 208 198 196 188 194
23 29 34 38 39 43 39 42 50 56 53 59 90 132 204 168 199 184 200 212 251 171 180 187 182 172 185 186 187 191 197 197 189 195 196 194 195 199 205 206 195 190 195 205 204
24 28 34 40 33 31 32 30 42 54 60 65 61 86 85 83 66 155 155 195 189 163 171 169 169 170 177 177 181 183 189 185 190 195 194 195 202 206 206 209 190 188 194 200 209
22 27 31 34 33 30 25 28 52 71 73 82 90 83 100 88 81 65 120 142 142 155 146 150 159 159 168 176 170 176 185 182 189 194 198 201 207 208 210 205 187 188 192 199 209
20 20 16 16 22 24 18 41 67 63 74 87 98 86 65 68 87 75 113 121 143 138 132 153 158 160 169 173 164 175 179 186 181 191 196 198 211 211 210 201 193 189 193 202 209
16 18 16 16 25 39 37 43 33 34 53 75 92 97 84 83 82 115 111 132 139 137 138 155 160 166 171 172 175 181 177 180 181 186 194 196 205 203 204 194 195 199 202 210 226
13 20 25 40 55 54 52 80 78 76 82 82 106 102 92 76 88 110 128 133 143 139 143 153 155 170 176 180 184 187 180 180 179 189 195 203 209 205 195 192 196 203 211 219 229
10 23 64 60 65 67 64 68 72 71 74 80 111 106 99 96 100 110 130 146 143 140 148 139 157 172 179 181 184 180 181 178 184 194 203 218 215 210 197 200 204 210 219 227 238
7 8 50 32 56 64 44 62 72 76 79 81 94 117 97 112 101 123 128 123 141 150 160 142 146 174 173 168 167 178 189 188 195 197 197 206 206 213 211 208 217 223 232 242 250
8 1 330 257 353 18 26 57 41 48 70 56 79 87 116 114 119 135 136 146 143 145 151 152 145 170 173 167 173 168 172 177 187 184 186 192 191 213 222 227 230 236 242 249 255
12 5 356 318 267 271 306 338 8 35 51 49 70 81 131 149 140 140 152 145 160 164 165 157 149 174 181 188 175 174 166 165 173 179 183 197 219 206 211 223 231 238 244 248 253
17 15 13 31 4 285 262 295 20 45 40 61 61 74 105 132 142 138 151 164 150 163 155 144 143 159 185 187 184 170 158 152 158 170 209 210 208 203 204 217 223 227 236 247 258
18 21 21 34 37 38 95 132 26 62 110 81 89 90 110 117 125 122 133 146 138 125 138 126 137 150 174 167 163 164 155 111 61 225 209 196 210 218 197 202 215 231 247 259 271
19 24 25 29 42 57 94 84 65 105 113 115 107 100 110 114 112 122 114 113 116 142 133 126 134 151 167 169 171 172 182 170 179 185 210 192 222 193 202 214 229 249 254 265 269
16 26 29 28 36 46 53 80 108 124 125 123 109 117 115 108 129 123 104 104 116 138 107 121 135 162 168 177 171 180 198 182 103 117 316 219 216 205 204 221 240 250 251 251 256
10 29 34 34 36 40 63 97 121 131 128 112 94 124 118 133 136 126 106 118 137 128 98 123 128 169 173 177 184 189 176 164 189 120 258 271 252 218 200 212 232 238 239 247 262
4 25 36 38 46 49 86 109 125 134 134 128 87 129 124 122 137 97 116 141 154 141 109 135 127 173 178 196 193 184 190 191 169 175 157 192 236 201 219 235 219 223 250 263 275
359 6 21 41 56 75 84 105 123 136 133 140 181 179 169 158 159 111 125 137 163 160 145 139 130 160 197 207 210 214 216 215 218 212 199 190 250 234 232 221 229 244 261 271 293
353 350 8 17 57 74 97 99 97 103 111 116 121 179 209 214 231 223 222 220 199 214 213 202 188 156 201 238 234 231 233 233 233 238 223 180 228 200 215 229 249 260 266 290 305
351 356 352 14 26 76 76 90 103 92 61 75 123 248 228 211 221 247 229 228 238 247 248 241 233 231 247 222 209 220 241 239 231 228 233 236 246 253 238 258 262 277 285 290 294
347 351 358 3 12 7 25 66 70 74 91 136 185 218 225 244 263 279 253 236 236 232 238 242 252 255 260 267 269 268 266 261 252 255 251 270 266 260 264 270 277 285 289 279 267
330 334 332 349 359 2 357 341 345 351 342 288 274 268 266 253 256 264 268 276 273 269 242 242 258 267 270 268 271 272 267 263 261 257 259 261 268 269 267 270 269 277 279 262 273
299 302 300 296 303 334 355 341 337 330 327 304 290 290 286 281 280 284 280 270 261 261 268 266 268 292 273 283 290 282 269 257 261 262 265 265 273 266 272 271 274 274 255 256 285
Height
3073 3067 3061 3058 3054 3050 3047 3044 3039 3037 3035 3035 3035 3038 3046 3050 3054 3059 3062 3069 3072 3077 3084 3090 3096 3104 3112 3118 3124 3130 3136 3139 3144 3148 3154 3158 3161 3164 3168 3171 3174 3177 3180 3183 3184
3075 3068 3062 3058 3053 3050 3047 3046 3042 3039 3038 3036 3038 3041 3045 3049 3053 3057 3062 3066 3072 3075 3081 3087 3093 3100 3108 3114 3122 3127 3133 3138 3143 3148 3152 3157 3160 3163 3166 3168 3171 3175 3177 3179 3181
3077 3072 3066 3060 3056 3052 3049 3047 3045 3042 3041 3040 3041 3042 3045 3049 3053 3055 3059 3064 3067 3071 3078 3083 3091 3097 3105 3111 3118 3125 3132 3137 3142 3147 3152 3155 3158 3161 3164 3167 3170 3173 3174 3177 3179
3079 3075 3070 3064 3059 3055 3051 3048 3046 3045 3043 3042 3043 3044 3046 3048 3055 3055 3057 3059 3062 3066 3074 3080 3087 3094 3101 3108 3116 3125 3130 3136 3141 3145 3149 3153 3157 3160 3163 3166 3168 3170 3173 3175 3177
3081 3077 3073 3068 3064 3060 3056 3053 3050 3047 3045 3046 3045 3045 3048 3050 3053 3052 3054 3057 3061 3065 3072 3079 3086 3092 3100 3108 3116 3124 3130 3136 3141 3144 3148 3152 3156 3160 3162 3163 3166 3168 3172 3174 3176
3082 3079 3075 3071 3067 3065 3062 3058 3055 3051 3049 3046 3046 3047 3049 3051 3052 3054 3054 3057 3060 3064 3072 3080 3088 3094 3101 3108 3117 3123 3130 3135 3139 3143 3147 3151 3154 3157 3160 3161 3164 3166 3170 3173 3175
3085 3081 3077 3074 3070 3067 3064 3061 3059 3056 3054 3051 3051 3050 3051 3053 3050 3053 3055 3056 3059 3067 3075 3083 3092 3096 3102 3109 3117 3123 3130 3135 3138 3141 3146 3150 3154 3155 3158 3159 3162 3165 3168 3171 3174
3087 3084 3080 3076 3072 3070 3067 3064 3062 3060 3058 3057 3057 3055 3054 3055 3056 3056 3057 3060 3065 3072 3078 3086 3096 3098 3103 3108 3117 3123 3130 3132 3135 3139 3144 3149 3151 3153 3155 3157 3160 3163 3166 3169 3172
3087 3085 3082 3079 3076 3072 3069 3067 3065 3063 3063 3062 3062 3060 3060 3060 3060 3063 3063 3066 3071 3075 3081 3090 3096 3099 3105 3109 3116 3120 3123 3129 3133 3137 3142 3147 3149 3151 3153 3155 3158 3161 3164 3166 3169
3089 3086 3083 3080 3076 3074 3070 3069 3068 3066 3065 3065 3066 3068 3068 3068 3066 3067 3069 3071 3075 3079 3086 3093 3097 3101 3106 3110 3109 3115 3121 3127 3131 3136 3141 3144 3147 3148 3151 3153 3157 3159 3162 3164 3167
3090 3088 3085 3083 3079 3076 3074 3073 3074 3072 3069 3068 3070 3070 3072 3072 3072 3072 3073 3076 3080 3085 3089 3094 3098 3102 3106 3110 3114 3119 3123 3128 3132 3136 3140 3143 3145 3146 3149 3152 3154 3158 3160 3162 3163
3091 3089 3087 3085 3082 3080 3080 3078 3075 3077 3074 3074 3075 3075 3075 3076 3076 3077 3079 3083 3085 3089 3093 3096 3099 3104 3108 3112 3115 3120 3123 3128 3132 3135 3140 3141 3144 3146 3147 3150 3153 3155 3157 3158 3159
3092 3089 3088 3087 3085 3084 3083 3082 3080 3080 3079 3080 3080 3080 3080 3082 3081 3083 3084 3087 3090 3093 3096 3098 3102 3107 3111 3114 3117 3120 3123 3127 3131 3134 3138 3140 3143 3144 3146 3148 3150 3151 3153 3154 3155
3092 3089 3087 3087 3087 3085 3085 3084 3083 3083 3083 3086 3084 3085 3085 3084 3086 3087 3090 3092 3093 3095 3097 3101 3104 3109 3113 3116 3118 3121 3124 3127 3131 3134 3136 3139 3140 3141 3143 3145 3146 3148 3150 3150 3150
3092 3089 3086 3084 3085 3085 3086 3085 3084 3084 3087 3090 3088 3087 3086 3088 3089 3090 3092 3094 3095 3097 3100 3103 3104 3109 3114 3118 3119 3122 3125 3128 3130 3133 3136 3137 3139 3137 3139 3141 3142 3144 3145 3146 3146
3093 3089 3087 3085 3084 3084 3085 3085 3085 3087 3089 3091 3090 3089 3089 3090 3091 3092 3093 3096 3097 3099 3100 3104 3104 3110 3116 3117 3119 3122 3126 3129 3132 3134 3136 3135 3137 3136 3136 3138 3139 3140 3141 3142 3143
3094 3090 3088 3086 3086 3084 3085 3086 3088 3086 3093 3094 3092 3091 3092 3093 3095 3096 3096 3098 3098 3101 3103 3105 3107 3112 3117 3118 3120 3123 3125 3129 3136 3137 3134 3133 3135 3133 3134 3135 3136 3138 3139 3139 3139
3096 3093 3090 3088 3087 3086 3086 3088 3087 3091 3091 3093 3094 3094 3095 3096 3098 3099 3100 3100 3101 3101 3104 3105 3112 3113 3116 3119 3121 3122 3123 3123 3132 3136 3130 3131 3129 3128 3131 3132 3134 3134 3135 3135 3135
3099 3095 3092 3091 3089 3088 3088 3087 3090 3092 3093 3095 3097 3097 3098 3098 3100 3101 3101 3102 3104 3105 3106 3108 3110 3114 3116 3119 3122 3122 3123 3124 3124 3129 3129 3128 3128 3128 3128 3129 3130 3131 3131 3131 3132
3102 3097 3095 3093 3091 3091 3090 3089 3092 3094 3096 3097 3097 3099 3099 3100 3102 3102 3102 3104 3105 3107 3107 3109 3112 3115 3117 3119 3120 3121 3123 3124 3124 3130 3132 3125 3123 3122 3124 3125 3126 3126 3127 3127 3127
3104 3100 3097 3095 3093 3093 3092 3092 3094 3096 3098 3099 3098 3099 3100 3102 3103 3103 3105 3106 3106 3107 3108 3109 3111 3116 3118 3118 3118 3120 3121 3122 3123 3124 3124 3128 3121 3120 3121 3122 3123 3124 3124 3124 3124
3106 3104 3100 3097 3097 3094 3095 3096 3097 3098 3099 3099 3100 3100 3101 3102 3103 3105 3106 3107 3107 3108 3109 3110 3111 3112 3115 3115 3116 3118 3119 3120 3120 3122 3121 3122 3119 3118 3119 3120 3120 3120 3120 3120 3119
3108 3107 3104 3101 3099 3097 3096 3097 3098 3099 3099 3100 3100 3101 3102 3103 3105 3104 3105 3107 3108 3108 3109 3110 3111 3111 3113 3116 3115 3114 3115 3116 3118 3118 3117 3119 3115 3114 3115 3116 3117 3117 3117 3116 3115
3110 3108 3107 3104 3103 3101 3099 3099 3098 3098 3100 3100 3101 3102 3103 3103 3104 3104 3105 3106 3107 3108 3108 3109 3109 3110 3111 3110 3110 3110 3111 3112 3113 3113 3110 3108 3111 3112 3113 3113 3113 3113 3112 3111 3110
3109 3108 3108 3106 3105 3104 3102 3101 3100 3100 3099 3099 3100 3100 3101 3103 3104 3104 3104 3104 3104 3105 3106 3107 3106 3107 3107 3107 3107 3107 3107 3107 3105 3106 3105 3103 3105 3110 3110 3109 3108 3107 3106 3105 3105
3108 3108 3106 3105 3104 3104 3104 3103 3101 3099 3100 3100 3100 3100 3101 3102 3102 3102 3102 3104 3104 3104 3103 3103 3103 3102 3102 3101 3101 3099 3099 3099 3099 3098 3097 3098 3097 3102 3105 3104 3102 3102 3101 3101 3101
3104 3104 3104 3104 3103 3102 3102 3102 3102 3101 3101 3100 3100 3100 3101 3101 3101 3100 3100 3100 3100 3100 3102 3102 3102 3101 3099 3098 3097 3093 3090 3090 3090 3089 3092 3091 3093 3096 3097 3096 3097 3096 3097 3097 3096